Time,TemperatureF,DewpointF,PressureIn,WindDirection,WindDirectionDegrees,WindSpeedMPH,WindSpeedGustMPH,Humidity,HourlyPrecipIn,Conditions,Clouds,dailyrainin,SoftwareType,DateUTC
2013-01-18 03:00:00,71.0,63.0,30.16,ENE,60,16.0,-999.0,77,-99.99,,,-99.99,,2013-01-18 03:00:00,
2013-01-18 03:42:00,71.0,63.0,30.16,ENE,60,16.0,-999.0,77,-99.99,,,-99.99,,2013-01-18 03:42:00,
2013-01-18 03:52:00,71.0,63.0,30.16,ENE,60,16.0,-999.0,77,-99.99,,,-99.99,,2013-01-18 03:52:00,
2013-01-18 05:00:00,71.0,63.0,30.15,NE,50,23.0,-999.0,76,-99.99,,,-99.99,,2013-01-18 05:00:00,
2013-01-18 05:52:00,71.0,63.0,30.15,NE,50,23.0,-999.0,76,-99.99,,,-99.99,,2013-01-18 05:52:00,
2013-01-18 06:00:00,72.0,61.0,30.14,ENE,60,20.0,-999.0,70,-99.99,,,-99.99,,2013-01-18 06:00:00,
2013-01-18 06:42:00,72.0,61.0,30.14,ENE,60,20.0,-999.0,70,-99.99,,,-99.99,,2013-01-18 06:42:00,
2013-01-18 06:52:00,72.0,61.0,30.14,ENE,60,20.0,-999.0,70,-99.99,,,-99.99,,2013-01-18 06:52:00,
2013-01-18 07:00:00,71.0,62.0,30.13,NE,50,20.0,-999.0,73,-99.99,,,-99.99,,2013-01-18 07:00:00,
2013-01-18 07:52:00,71.0,62.0,30.13,NE,50,20.0,-999.0,73,-99.99,,,-99.99,,2013-01-18 07:52:00,
2013-01-18 08:00:00,71.0,62.0,30.13,ENE,70,18.0,-999.0,73,-99.99,,,-99.99,,2013-01-18 08:00:00,
2013-01-18 08:42:00,71.0,62.0,30.13,ENE,70,18.0,-999.0,73,-99.99,,,-99.99,,2013-01-18 08:42:00,
2013-01-18 08:52:00,71.0,62.0,30.13,ENE,70,18.0,-999.0,73,-99.99,,,-99.99,,2013-01-18 08:52:00,
2013-01-18 10:00:00,71.0,63.0,30.14,ENE,60,21.0,-999.0,74,-99.99,,,-99.99,,2013-01-18 10:00:00,
2013-01-18 10:52:00,71.0,63.0,30.14,ENE,60,21.0,-999.0,74,-99.99,,,-99.99,,2013-01-18 10:52:00,
2013-01-18 16:00:00,74.0,64.0,30.08,ENE,70,18.0,-999.0,70,-99.99,,,-99.99,,2013-01-18 16:00:00,
2013-01-18 16:52:00,74.0,64.0,30.08,ENE,70,18.0,-999.0,70,-99.99,,,-99.99,,2013-01-18 16:52:00,
2013-01-18 17:00:00,74.0,64.0,30.19,ENE,70,15.0,-999.0,70,-99.99,,,-99.99,,2013-01-18 17:00:00,
2013-01-18 17:52:00,74.0,64.0,30.19,ENE,70,15.0,-999.0,70,-99.99,,,-99.99,,2013-01-18 17:52:00,
2013-01-18 18:00:00,75.0,65.0,30.19,East,80,18.0,-999.0,71,-99.99,,,-99.99,,2013-01-18 18:00:00,
2013-01-18 18:52:00,75.0,65.0,30.19,East,80,18.0,-999.0,71,-99.99,,,-99.99,,2013-01-18 18:52:00,
2013-01-18 19:00:00,75.0,65.0,30.19,ENE,70,18.0,-999.0,71,-99.99,,,-99.99,,2013-01-18 19:00:00,
2013-01-18 19:42:00,75.0,65.0,30.19,ENE,70,18.0,-999.0,71,-99.99,,,-99.99,,2013-01-18 19:42:00,
2013-01-18 19:52:00,75.0,65.0,30.19,ENE,70,18.0,-999.0,71,-99.99,,,-99.99,,2013-01-18 19:52:00,
2013-01-18 22:00:00,73.0,65.0,30.13,East,90,18.0,-999.0,77,-99.99,,,-99.99,,2013-01-18 22:00:00,
2013-01-18 22:52:00,73.0,65.0,30.13,East,90,18.0,-999.0,77,-99.99,,,-99.99,,2013-01-18 22:52:00,